Ludington, MI

10:47 AM EDT on October 20, 2019 (GMT -0400)
Mason County

Weather History for KLDM - August, 2019

Change the Weather History Date:

Saturday, August 17, 2019

  Actual Average Record
Temperature  
Mean Temperature 68 °F -  
Max Temperature 76 °F 78 °F 99 °F (1988)
Min Temperature 59 °F 57 °F 38 °F (1979)
Cooling Degree Days 2    
Growing Degree Days 18 (Base 50)    
Moisture  
Dew Point 63 °F    
Average Humidity 84    
Maximum Humidity 98    
Minimum Humidity 60    
Precipitation  
Precipitation 0.01 in - - ()
Sea Level Pressure  
Sea Level Pressure 29.88 in    
Wind  
Wind Speed 2 mph (WSW)    
Max Wind Speed 12 mph    
Max Gust Speed -    
Visibility 7 miles    
Events Fog    
Averages and records for this station are not official NWS values.
T = Trace of Precipitation, MM = Missing Value Source: NWS Daily Summary

Daily Weather History Graph

Daily Weather History Graph

Search for Another Location

Airport or City:

Astronomy

Aug. 17, 2019 Rise Set
Actual Time 6:51 AM EDT 8:47 PM EDT
Civil Twilight 6:20 AM EDT 9:18 PM EDT
Nautical Twilight 5:42 AM EDT 9:55 PM EDT
Astronomical Twilight 5:00 AM EDT 10:37 PM EDT
Moon 10:11 PM EDT (8/17) 8:41 AM EDT (8/17)
Length of Visible Light 14h 57m
Length of Day
13h 55m
Waning Gibbous, 96% of the Moon is Illuminated
Aug 17
Waning Gibbous
Aug 23
Last Quarter
Aug 30
New
Sep 5
First Quarter
Sep 14
Full

Hourly Weather History & Observations

Time (EDT) Temp. Dew Point Humidity Pressure Visibility Wind Dir Wind Speed Gust Speed Precip Events Conditions
12:16 AM 63.7 °F 63.0 °F 97% 29.83 in 0.2 mi Calm Calm - N/A Fog Fog
12:35 AM 62.2 °F 61.3 °F 97% 29.84 in 0.2 mi Calm Calm - N/A Fog Fog
12:55 AM 63.1 °F 62.4 °F 97% 29.84 in 0.5 mi Calm Calm - N/A Fog Fog
12:56 AM 63.0 °F 62.2 °F 97% 29.84 in 0.8 mi Calm Calm - N/A   Mostly Cloudy
1:19 AM 61.9 °F 61.2 °F 97% 29.85 in 0.2 mi Calm Calm - N/A Fog Fog
1:37 AM 60.3 °F 59.5 °F 97% 29.85 in 0.2 mi Calm Calm - N/A Fog Fog
1:56 AM 60.6 °F 59.9 °F 97% 29.85 in 0.2 mi Calm Calm - N/A Fog Fog
2:15 AM 61.5 °F 60.8 °F 97% 29.85 in 0.5 mi Calm Calm - N/A Fog Fog
2:35 AM 60.3 °F 59.7 °F 98% 29.85 in 0.2 mi Calm Calm - N/A Fog Fog
2:58 AM 61.5 °F 60.8 °F 97% 29.85 in 0.2 mi Calm Calm - N/A Fog Fog
3:16 AM 61.3 °F 60.6 °F 97% 29.85 in 0.2 mi Calm Calm - N/A Fog Fog
3:35 AM 61.3 °F 60.4 °F 97% 29.84 in 0.8 mi Calm Calm - N/A   Mostly Cloudy
3:36 AM 61.0 °F 60.3 °F 97% 29.84 in 0.8 mi Calm Calm - N/A   Mostly Cloudy
3:55 AM 61.5 °F 60.8 °F 97% 29.84 in 1.0 mi Calm Calm - N/A   Overcast
3:56 AM 61.5 °F 60.8 °F 97% 29.84 in 1.0 mi Calm Calm - N/A   Overcast
4:19 AM 64.0 °F 63.3 °F 97% 29.84 in 10.0 mi Calm Calm - N/A   Mostly Cloudy
4:37 AM 64.8 °F 64.0 °F 98% 29.84 in 10.0 mi West 3.5 mph - 0.01 in   Scattered Clouds
4:55 AM 64.8 °F 64.0 °F 98% 29.84 in 10.0 mi Calm Calm - 0.01 in   Clear
5:15 AM 64.8 °F 64.0 °F 98% 29.84 in 10.0 mi Calm Calm - N/A   Clear
5:35 AM 64.9 °F 64.2 °F 98% 29.84 in 10.0 mi Calm Calm - N/A   Clear
5:58 AM 64.4 °F 63.7 °F 98% 29.83 in 10.0 mi Calm Calm - N/A   Clear
6:16 AM 62.2 °F 61.5 °F 97% 29.83 in 3.0 mi Calm Calm - N/A   Clear
6:35 AM 59.9 °F 59.2 °F 97% 29.82 in 0.5 mi Calm Calm - N/A Fog Fog
6:55 AM 59.4 °F 58.6 °F 97% 29.84 in 0.2 mi Calm Calm - N/A Fog Fog
7:19 AM 60.4 °F 59.9 °F 98% 29.86 in 0.2 mi Calm Calm - N/A Fog Fog
7:37 AM 62.6 °F 61.9 °F 97% 29.88 in 5.0 mi WSW 3.5 mph - N/A   Scattered Clouds
7:55 AM 65.7 °F 64.8 °F 97% 29.91 in 10.0 mi WSW 3.5 mph - N/A   Clear
7:56 AM 65.7 °F 64.9 °F 98% 29.91 in 10.0 mi WSW 5.8 mph - N/A   Clear
8:15 AM 67.1 °F 66.4 °F 98% 29.89 in 10.0 mi Calm Calm - N/A   Clear
8:35 AM 68.0 °F 66.9 °F 96% 29.90 in 10.0 mi West 4.6 mph - N/A   Clear
8:58 AM 68.9 °F 66.6 °F 92% 29.90 in 10.0 mi Calm Calm - N/A   Clear
9:16 AM 68.9 °F 66.4 °F 92% 29.91 in 10.0 mi West 5.8 mph - N/A   Scattered Clouds
9:35 AM 69.6 °F 66.7 °F 91% 29.90 in 10.0 mi West 4.6 mph - N/A   Scattered Clouds
9:36 AM 69.6 °F 66.7 °F 91% 29.90 in 10.0 mi WNW 4.6 mph - N/A   Scattered Clouds
9:55 AM 71.1 °F 66.6 °F 86% 29.90 in 10.0 mi West 3.5 mph - N/A   Scattered Clouds
10:19 AM 71.8 °F 66.0 °F 82% 29.91 in 10.0 mi WSW 5.8 mph - N/A   Clear
10:37 AM 72.5 °F 66.2 °F 81% 29.90 in 10.0 mi West 3.5 mph - N/A   Clear
10:55 AM 73.0 °F 66.2 °F 79% 29.90 in 10.0 mi WSW 6.9 mph - N/A   Clear
10:56 AM 72.9 °F 65.8 °F 79% 29.90 in 10.0 mi West 5.8 mph - N/A   Clear
11:15 AM 73.4 °F 66.0 °F 78% 29.92 in 10.0 mi SW 8.1 mph - N/A   Clear
11:16 AM 73.4 °F 66.2 °F 78% 29.92 in 10.0 mi WSW 8.1 mph - N/A   Clear
11:35 AM 72.7 °F 66.4 °F 81% 29.93 in 10.0 mi WSW 8.1 mph - N/A   Clear
11:58 AM 72.1 °F 66.4 °F 82% 29.93 in 10.0 mi WSW 6.9 mph - N/A   Clear
12:16 PM 73.8 °F 66.2 °F 77% 29.92 in 10.0 mi WSW 9.2 mph - N/A   Clear
12:35 PM 73.4 °F 65.3 °F 76% 29.92 in 10.0 mi SW 8.1 mph - N/A   Clear
12:36 PM 73.4 °F 65.3 °F 76% 29.92 in 10.0 mi SSW 8.1 mph - N/A   Clear
12:55 PM 74.3 °F 64.8 °F 72% 29.91 in 10.0 mi SW 6.9 mph - N/A   Clear
1:19 PM 74.7 °F 64.2 °F 70% 29.91 in 10.0 mi WSW 6.9 mph - N/A   Clear
1:37 PM 75.2 °F 64.0 °F 68% 29.90 in 10.0 mi SW 5.8 mph - N/A   Clear
1:55 PM 75.6 °F 63.3 °F 66% 29.90 in 10.0 mi SW 6.9 mph - N/A   Clear
1:56 PM 75.7 °F 63.0 °F 64% 29.90 in 10.0 mi WSW 6.9 mph - N/A   Clear
2:15 PM 76.3 °F 62.6 °F 62% 29.92 in 10.0 mi WSW 8.1 mph - N/A   Clear
2:35 PM 75.4 °F 65.3 °F 71% 29.92 in 10.0 mi SW 11.5 mph - N/A   Clear
2:58 PM 73.9 °F 65.3 °F 74% 29.91 in 10.0 mi SSW 8.1 mph - N/A   Clear
3:16 PM 74.5 °F 64.0 °F 70% 29.90 in 10.0 mi SW 5.8 mph - N/A   Clear
3:35 PM 75.4 °F 63.3 °F 66% 29.90 in 10.0 mi SW 5.8 mph - N/A   Clear
3:36 PM 75.4 °F 63.3 °F 66% 29.90 in 10.0 mi SW 6.9 mph - N/A   Clear
3:55 PM 75.9 °F 63.1 °F 64% 29.90 in 10.0 mi WSW 3.5 mph - N/A   Clear
3:56 PM 75.9 °F 63.3 °F 65% 29.90 in 10.0 mi WSW 4.6 mph - N/A   Clear
4:19 PM 76.1 °F 62.4 °F 62% 29.90 in 10.0 mi SW 5.8 mph - N/A   Clear
4:37 PM 75.9 °F 61.3 °F 60% 29.89 in 10.0 mi West 3.5 mph - N/A   Clear
4:55 PM 76.6 °F 62.2 °F 61% 29.88 in 10.0 mi WSW 4.6 mph - N/A   Clear
4:56 PM 76.6 °F 62.1 °F 61% 29.88 in 10.0 mi WSW 4.6 mph - N/A   Clear
5:15 PM 76.3 °F 61.9 °F 61% 29.87 in 10.0 mi Calm Calm - N/A   Clear
5:16 PM 76.3 °F 62.1 °F 61% 29.88 in 10.0 mi NW 3.5 mph - N/A   Clear
5:35 PM 76.1 °F 62.4 °F 62% 29.88 in 10.0 mi Calm Calm - N/A   Clear
5:58 PM 75.6 °F 63.0 °F 65% 29.88 in 10.0 mi West 3.5 mph - N/A   Clear
6:16 PM 74.1 °F 63.7 °F 70% 29.88 in 10.0 mi WSW 5.8 mph - N/A   Clear
6:35 PM 72.9 °F 62.4 °F 70% 29.89 in 10.0 mi WSW 8.1 mph - N/A   Clear
6:36 PM 72.7 °F 62.4 °F 70% 29.89 in 10.0 mi WSW 6.9 mph - N/A   Clear
6:55 PM 72.1 °F 65.1 °F 78% 29.89 in 10.0 mi WSW 3.5 mph - N/A   Clear
7:19 PM 71.8 °F 64.8 °F 78% 29.87 in 10.0 mi WSW 3.5 mph - N/A   Clear
7:37 PM 71.6 °F 64.8 °F 79% 29.87 in 10.0 mi WSW 5.8 mph - N/A   Clear
7:55 PM 71.2 °F 64.2 °F 78% 29.88 in 10.0 mi WSW 5.8 mph - N/A   Clear
7:56 PM 71.2 °F 64.2 °F 78% 29.88 in 10.0 mi WSW 5.8 mph - N/A   Clear
8:15 PM 71.6 °F 64.4 °F 78% 29.87 in 10.0 mi SW 4.6 mph - N/A   Clear
8:16 PM 71.6 °F 64.2 °F 77% 29.87 in 10.0 mi SW 4.6 mph - N/A   Clear
8:35 PM 70.9 °F 63.7 °F 78% 29.88 in 10.0 mi SW 3.5 mph - N/A   Clear
8:58 PM 68.9 °F 63.5 °F 83% 29.88 in 10.0 mi Calm Calm - N/A   Clear
9:16 PM 66.2 °F 63.5 °F 91% 29.88 in 10.0 mi Calm Calm - N/A   Clear
9:35 PM 64.9 °F 64.2 °F 98% 29.88 in 10.0 mi Calm Calm - N/A   Clear
9:55 PM 63.5 °F 62.8 °F 97% 29.88 in 4.0 mi Calm Calm - N/A   Clear
9:56 PM 63.5 °F 62.8 °F 97% 29.88 in 4.0 mi Calm Calm - N/A   Clear
10:19 PM 59.7 °F 59.0 °F 97% 29.88 in 4.0 mi Calm Calm - N/A   Clear
10:37 PM 61.7 °F 61.2 °F 98% 29.88 in 4.0 mi Calm Calm - N/A   Clear
10:55 PM 61.3 °F 60.6 °F 97% 29.87 in 0.2 mi Calm Calm - N/A Fog Fog
11:15 PM 61.3 °F 60.6 °F 97% 29.88 in 0.2 mi Calm Calm - N/A Fog Fog
11:16 PM 61.3 °F 60.6 °F 97% 29.88 in 0.2 mi Calm Calm - N/A Fog Fog
11:35 PM 61.3 °F 60.6 °F 97% 29.88 in 0.2 mi Calm Calm - N/A Fog Fog
11:40 PM 61.3 °F 60.6 °F 97% 29.88 in 0.5 mi Calm Calm - N/A Fog Fog
11:57 PM 59.5 °F 59.0 °F 98% 29.89 in 0.2 mi Calm Calm - N/A Fog Fog